When you browse on this site, cookies collect data to enhance your experience and personalize the content and advertising you see.
Visit our Privacy Policy to learn more. By continuing to use the site, you agree to this use of cookies and data.
  • En España
  • Lista de países
  • Para 7 días
  • Temperatura del agua
  • Mapa Satelital
  • El tiempo en el mapa
  • Informadores
  • user-avatar
    Iniciar sesión

    Tiempo cada hora Madrid

    Hoy, 17 Diciembre, Lunes

    Tiempo Temperatura Precipitaciones Viento Presión Humedad
    00:00 +4°C° 0 mm 3 mps 713 mmHg 79%
    01:00 +5°C° 0 mm 2 mps 713 mmHg 79%
    02:00 +4°C° 0 mm 2 mps 714 mmHg 80%
    03:00 +5°C° 0 mm 1 mps 714 mmHg 81%
    04:00 +4°C° 0 mm 1 mps 714 mmHg 81%
    05:00 +4°C° 0 mm 1 mps 714 mmHg 80%
    06:00 +4°C° 0 mm 1 mps 714 mmHg 81%
    07:00 +5°C° 0 mm 1 mps 714 mmHg 76%
    08:00 +5°C° 0 mm 1 mps 715 mmHg 72%
    09:00 +6°C° 0 mm 1 mps 715 mmHg 68%
    10:00 +7°C° 0 mm 1 mps 715 mmHg 62%
    11:00 +9°C° 0 mm 1 mps 714 mmHg 57%
    12:00 +10°C° 0 mm 1 mps 714 mmHg 51%
    13:00 +10°C° 0 mm 1 mps 714 mmHg 50%
    14:00 +10°C° 0 mm 1 mps 713 mmHg 49%
    15:00 +11°C° 0 mm 1 mps 713 mmHg 47%
    16:00 +9°C° 0 mm 1 mps 713 mmHg 52%
    17:00 +8°C° 0 mm 1 mps 713 mmHg 58%
    18:00 +6°C° 0 mm 1 mps 713 mmHg 63%
    19:00 +6°C° 0 mm 1 mps 713 mmHg 63%
    20:00 +6°C° 0 mm 1 mps 713 mmHg 63%
    21:00 +6°C° 0 mm 1 mps 713 mmHg 63%
    22:00 +6°C° 0 mm 1 mps 713 mmHg 63%
    23:00 +5°C° 0 mm 1 mps 713 mmHg 63%

    Mañana, 18 Diciembre, Martes

    Tiempo Temperatura Precipitaciones Viento Presión Humedad
    00:00 +4°C° 0 mm 2 mps 712 mmHg 63%
    01:00 +4°C° 0 mm 2 mps 712 mmHg 64%
    02:00 +4°C° 0 mm 2 mps 711 mmHg 65%
    03:00 +4°C° 0 mm 2 mps 711 mmHg 65%
    04:00 +3°C° 0 mm 2 mps 711 mmHg 66%
    05:00 +3°C° 0 mm 2 mps 710 mmHg 67%
    06:00 +3°C° 0 mm 2 mps 710 mmHg 68%
    07:00 +4°C° 0 mm 2 mps 710 mmHg 65%
    08:00 +4°C° 0 mm 2 mps 710 mmHg 63%
    09:00 +5°C° 0 mm 2 mps 710 mmHg 61%
    10:00 +7°C° 0 mm 2 mps 710 mmHg 57%
    11:00 +8°C° 0 mm 2 mps 709 mmHg 53%
    12:00 +10°C° 0 mm 3 mps 709 mmHg 48%
    13:00 +10°C° 0 mm 3 mps 708 mmHg 48%
    14:00 +10°C° 0 mm 3 mps 708 mmHg 47%
    15:00 +11°C° 0 mm 3 mps 707 mmHg 47%
    16:00 +10°C° 0 mm 2 mps 707 mmHg 52%
    17:00 +9°C° 0 mm 2 mps 707 mmHg 56%
    18:00 +9°C° 0 mm 1 mps 707 mmHg 61%
    19:00 +9°C° 0.3 mm 1 mps 708 mmHg 64%
    20:00 +8°C° 0.3 mm 2 mps 708 mmHg 68%
    21:00 +8°C° 0.3 mm 2 mps 708 mmHg 71%
    22:00 +8°C° 0.2 mm 2 mps 708 mmHg 76%
    23:00 +8°C° 0.2 mm 2 mps 708 mmHg 80%

    Pasado mañana, 19 Diciembre, Miércoles

    Tiempo Temperatura Precipitaciones Viento Presión Humedad
    00:00 +8°C° 0.2 mm 2 mps 708 mmHg 85%
    01:00 +8°C° 0.1 mm 2 mps 708 mmHg 87%
    02:00 +8°C° 0.1 mm 2 mps 708 mmHg 89%
    03:00 +8°C° 0.1 mm 2 mps 708 mmHg 91%
    04:00 +7°C° 0 mm 2 mps 708 mmHg 91%
    05:00 +6°C° 0 mm 2 mps 708 mmHg 90%
    06:00 +6°C° 0 mm 2 mps 708 mmHg 90%
    07:00 +6°C° 0 mm 2 mps 709 mmHg 86%
    08:00 +5°C° 0 mm 3 mps 710 mmHg 82%
    09:00 +5°C° 0 mm 3 mps 710 mmHg 78%
    10:00 +8°C° 0 mm 3 mps 710 mmHg 72%
    11:00 +8°C° 0 mm 4 mps 710 mmHg 65%
    12:00 +9°C° 0 mm 5 mps 710 mmHg 58%
    13:00 +9°C° 0 mm 5 mps 710 mmHg 58%
    14:00 +9°C° 0 mm 5 mps 710 mmHg 57%
    15:00 +10°C° 0 mm 5 mps 710 mmHg 57%
    16:00 +8°C° 0 mm 4 mps 710 mmHg 63%
    17:00 +7°C° 0 mm 4 mps 711 mmHg 68%
    18:00 +7°C° 0 mm 3 mps 711 mmHg 74%
    19:00 +7°C° 0 mm 3 mps 711 mmHg 76%
    20:00 +7°C° 0 mm 3 mps 712 mmHg 79%
    21:00 +5°C° 0 mm 3 mps 712 mmHg 81%
    22:00 +5°C° 0 mm 3 mps 712 mmHg 82%
    23:00 +6°C° 0 mm 2 mps 712 mmHg 82%

    20 Diciembre, Jueves

    Tiempo Temperatura Precipitaciones Viento Presión Humedad
    00:00 +6°C° 0 mm 2 mps 712 mmHg 82%
    01:00 +5°C° 0 mm 2 mps 712 mmHg 83%
    02:00 +5°C° 0 mm 2 mps 712 mmHg 83%
    03:00 +5°C° 0 mm 2 mps 712 mmHg 84%
    04:00 +5°C° 0 mm 2 mps 713 mmHg 84%
    05:00 +6°C° 0 mm 1 mps 713 mmHg 85%
    06:00 +5°C° 0 mm 1 mps 713 mmHg 86%
    07:00 +6°C° 0 mm 1 mps 713 mmHg 83%
    08:00 +6°C° 0 mm 1 mps 714 mmHg 81%
    09:00 +7°C° 0 mm 1 mps 714 mmHg 79%
    10:00 +8°C° 0 mm 1 mps 714 mmHg 72%
    11:00 +9°C° 0 mm 1 mps 714 mmHg 66%
    12:00 +10°C° 0 mm 2 mps 714 mmHg 59%
    13:00 +10°C° 0 mm 2 mps 713 mmHg 58%
    14:00 +12°C° 0 mm 2 mps 713 mmHg 56%
    15:00 +12°C° 0 mm 2 mps 713 mmHg 55%
    16:00 +10°C° 0 mm 2 mps 713 mmHg 61%
    17:00 +9°C° 0 mm 2 mps 713 mmHg 67%
    18:00 +7°C° 0 mm 2 mps 713 mmHg 73%
    19:00 +8°C° 0 mm 1 mps 714 mmHg 75%
    20:00 +8°C° 0 mm 1 mps 714 mmHg 77%
    21:00 +7°C° 0 mm 1 mps 715 mmHg 79%
    22:00 +7°C° 0 mm 1 mps 715 mmHg 81%
    23:00 +7°C° 0 mm 1 mps 715 mmHg 82%

    21 Diciembre, Viernes

    Tiempo Temperatura Precipitaciones Viento Presión Humedad
    00:00 +7°C° 0 mm 1 mps 715 mmHg 83%
    01:00 +7°C° 0 mm 1 mps 715 mmHg 84%
    02:00 +7°C° 0 mm 1 mps 714 mmHg 84%
    03:00 +7°C° 0 mm 1 mps 714 mmHg 85%
    04:00 +6°C° 0 mm 1 mps 714 mmHg 85%
    05:00 +6°C° 0 mm 1 mps 714 mmHg 86%
    06:00 +6°C° 0 mm 1 mps 714 mmHg 86%
    07:00 +7°C° 0 mm 1 mps 715 mmHg 85%
    08:00 +8°C° 0 mm 1 mps 715 mmHg 83%
    09:00 +8°C° 0 mm 1 mps 716 mmHg 81%
    10:00 +10°C° 0 mm 1 mps 716 mmHg 76%
    11:00 +10°C° 0 mm 2 mps 715 mmHg 72%
    12:00 +13°C° 0 mm 2 mps 715 mmHg 67%
    13:00 +13°C° 0 mm 2 mps 715 mmHg 66%
    14:00 +14°C° 0 mm 2 mps 715 mmHg 65%
    15:00 +14°C° 0 mm 2 mps 714 mmHg 64%
    16:00 +13°C° 0 mm 2 mps 715 mmHg 71%
    17:00 +11°C° 0 mm 1 mps 715 mmHg 77%
    18:00 +10°C° 0 mm 1 mps 715 mmHg 83%
    19:00 +10°C° 0 mm 1 mps 715 mmHg 84%
    20:00 +8°C° 0 mm 0 mps 715 mmHg 86%
    21:00 +8°C° 0 mm 0 mps 716 mmHg 87%
    22:00 +8°C° 0 mm 0 mps 716 mmHg 87%
    23:00 +8°C° 0 mm 0 mps 715 mmHg 88%

    22 Diciembre, Sábado

    Tiempo Temperatura Precipitaciones Viento Presión Humedad
    00:00 +7°C° 0 mm 0 mps 715 mmHg 89%
    01:00 +7°C° 0 mm 0 mps 715 mmHg 89%
    02:00 +7°C° 0 mm 0 mps 715 mmHg 89%
    03:00 +7°C° 0 mm 0 mps 715 mmHg 90%
    04:00 +6°C° 0 mm 0 mps 715 mmHg 90%
    05:00 +6°C° 0 mm 0 mps 715 mmHg 90%
    06:00 +6°C° 0 mm 0 mps 715 mmHg 91%
    07:00 +7°C° 0 mm 0 mps 715 mmHg 89%
    08:00 +8°C° 0 mm 0 mps 715 mmHg 88%
    09:00 +8°C° 0 mm 0 mps 716 mmHg 86%
    10:00 +10°C° 0 mm 0 mps 715 mmHg 80%
    11:00 +12°C° 0 mm 1 mps 715 mmHg 74%
    12:00 +14°C° 0 mm 1 mps 715 mmHg 67%
    13:00 +14°C° 0 mm 1 mps 715 mmHg 66%
    14:00 +15°C° 0 mm 1 mps 714 mmHg 64%
    15:00 +15°C° 0 mm 1 mps 714 mmHg 63%
    16:00 +13°C° 0 mm 1 mps 714 mmHg 70%
    17:00 +12°C° 0 mm 1 mps 714 mmHg 77%
    18:00 +9°C° 0 mm 0 mps 714 mmHg 84%
    19:00 +9°C° 0 mm 0 mps 714 mmHg 84%
    20:00 +9°C° 0 mm 0 mps 714 mmHg 85%
    21:00 +8°C° 0 mm 0 mps 714 mmHg 85%
    22:00 +9°C° 0 mm 1 mps 714 mmHg 85%
    23:00 +9°C° 0 mm 1 mps 714 mmHg 85%
    Mostrar más